Home   Weather   Fall River   Past weeks

Flag for USA Past Weather in Fall River, Massachusetts, USA — Yesterday and Last 2 Weeks

Now
60 °F

Fog.


Feels Like: 60 °F
Forecast: 58 / 63 °F
Wind: No wind

Location: New Bedford Regional Airport

Current Time: Sep 27, 2016 at 9:44:09 PM

Latest Report: Sep 27, 2016 at 9:04 PM


Visibility: 2 mi

Pressure: 29.96 "Hg

Humidity: 93%

Dew Point: 58 °F

Location of Fall RiverLocation

Past Weather in Fall River — Graph

°F

Fall River Temperature Yesterday

Maximum temperature yesterday: 67 °F (at 2:53 PM)
Minimum temperature yesterday: 37 °F (at 5:53 AM)
Average temperature yesterday: 53 °F

High & Low Weather Summary for the Past Weeks

 TemperatureHumidityPressure
High84 °F (Sep 14, 12:53 PM)97% (Sep 13, 6:53 AM)30.36 "Hg (Sep 13, 6:53 AM)
Low37 °F (Sep 26, 5:53 AM)28% (Sep 25, 3:53 PM)29.87 "Hg (Sep 27, 9:03 AM)
Average65 °F75%30.11 "Hg
* Reported Sep 12 7:53 PM — Sep 27 7:53 PM, Fall River, Weather by CustomWeather, © 2016

Note: Actual official high and low records may vary slightly from our data, if they occured in-between our weather recording intervals... More about our weather records

Advertising

Fall River Weather History for the Previous 24 Hours

Scroll right to see more
 ConditionsComfort  
Time TempWeatherWind HumidityBarometerVisibility
7:53 PM
Tue, Sep 27
63 °FFog.No wind93%29.94 "Hg5 mi
6:53 PM66 °FClear.No wind87%29.92 "Hg10 mi
5:53 PM69 °FScattered clouds.6 mph81%29.90 "Hg10 mi
4:53 PM71 °FPassing clouds.No wind68%29.90 "Hg10 mi
3:53 PM71 °FPartly sunny.No wind68%29.89 "Hg10 mi
2:53 PM71 °FScattered clouds.3 mph71%29.88 "Hg10 mi
1:53 PM70 °FPartly sunny.3 mph73%29.89 "Hg10 mi
1:00 PM70 °FPartly sunny.7 mph76%29.89 "Hg10 mi
11:53 AM68 °FPartly sunny.5 mph87%29.89 "Hg10 mi
11:00 AM67 °FMostly cloudy.5 mph90%29.89 "Hg10 mi
9:53 AM68 °FLight rain. Cloudy.6 mph90%29.88 "Hg10 mi
9:03 AM68 °FLight rain. More clouds than sun.12 mph90%29.87 "Hg10 mi
8:53 AM68 °FLight rain. Mostly cloudy.10 mph90%29.88 "Hg10 mi
7:53 AM67 °FLight rain. Mostly cloudy.14 mph90%29.88 "Hg10 mi
6:53 AM67 °FRain. Fog.10 mph90%29.90 "Hg5 mi
5:53 AM69 °FLight rain. Overcast.10 mph76%29.90 "Hg10 mi
4:53 AM68 °FMostly cloudy.12 mph76%29.92 "Hg10 mi
3:53 AM67 °FMostly cloudy.10 mph76%29.94 "Hg10 mi
2:53 AM65 °FMostly cloudy.6 mph76%29.97 "Hg10 mi
1:53 AM65 °FOvercast.8 mph68%29.98 "Hg10 mi
12:53 AM64 °FOvercast.7 mph65%30.00 "Hg10 mi
11:53 PM
Mon, Sep 26
59 °FOvercast.3 mph72%30.03 "Hg10 mi
10:53 PM52 °FClear.No wind83%30.06 "Hg10 mi
9:53 PM50 °FClear.No wind89%30.07 "Hg10 mi
Weather by CustomWeather, © 2016

See weather overviewHow to use our weather pages